Wind_Speed
30 24 20 17 10 6 2 4 7 6 10 12 14 19 21 23 24 24 25 27 27 27
22 19 11 7 7 3 2 4 3 6 10 16 18 20 22 24 24 24 26 27 28 29
6 7 6 5 3 3 3 8 10 11 15 19 21 23 24 25 24 25 27 27 27 28
6 6 7 6 5 2 7 12 17 19 18 21 23 25 25 26 27 28 29 30 31 32
6 7 7 7 2 5 11 19 17 20 22 24 26 26 27 28 28 28 29 30 29 30
6 7 7 6 8 12 17 16 20 22 24 26 26 27 28 29 29 30 30 29 29 29
10 10 8 8 8 15 17 19 21 24 26 27 28 27 27 27 29 29 28 26 26 26
5 9 12 9 13 15 18 22 24 25 27 26 25 25 25 23 22 22 25 26 27 29
11 10 8 12 13 19 22 22 24 25 25 26 24 23 26 27 22 21 24 26 28 32
11 12 11 11 17 19 22 22 23 24 24 24 25 23 24 25 24 23 26 29 30 31
9 7 10 15 18 20 21 22 23 23 23 23 22 26 30 34 32 28 29 31 31 32
4 9 13 17 17 19 21 22 22 20 21 24 27 29 32 32 30 30 32 34 33 33
9 12 16 15 18 20 20 22 21 25 21 21 27 30 31 31 30 30 25 25 24 27
12 15 16 17 19 19 22 22 24 17 20 25 26 28 29 29 30 27 30 27 28 26
Wind_Direction
241 230 237 241 232 190 213 261 287 269 277 286 282 279 279 278 277 279 279 278 278 276
237 222 211 201 201 209 240 270 300 294 290 289 283 282 282 279 278 273 272 274 274 277
191 172 162 143 138 196 302 315 280 290 281 283 283 282 280 278 277 274 273 274 273 272
150 161 159 160 189 289 299 298 297 284 286 285 283 282 281 278 276 273 273 271 272 273
167 167 168 176 262 289 281 281 279 287 284 283 283 283 281 279 277 276 276 276 278 279
187 202 207 275 284 287 270 288 286 287 288 287 286 285 282 281 280 279 278 278 278 277
201 224 277 281 288 275 280 285 291 291 290 288 286 284 284 284 282 280 279 278 280 282
291 286 269 257 272 284 288 289 289 291 289 290 290 287 287 290 293 292 290 287 286 286
287 274 260 272 279 286 287 294 294 292 295 296 295 295 300 303 303 295 288 284 279 275
270 255 269 284 288 295 299 298 299 301 301 301 301 302 305 311 307 297 287 280 277 273
246 278 296 295 298 299 304 305 304 303 304 306 311 310 309 303 301 293 284 275 270 266
320 307 300 296 304 310 309 304 302 306 312 312 305 304 302 300 294 284 275 273 267 262
321 306 303 313 313 307 304 307 312 309 304 304 305 305 301 299 295 289 279 288 279 278
312 313 316 315 310 314 313 312 306 314 319 314 308 307 306 310 311 304 301 291 285 279
Height
761 763 766 770 771 773 775 775 777 779 784 786 784 784 783 780 778 777 775 773 771 768
753 757 760 765 768 772 776 778 778 780 781 782 781 779 777 774 772 771 769 767 765 762
752 754 759 763 769 774 775 776 779 778 778 777 775 773 771 768 766 765 762 760 758 756
753 757 760 765 769 772 775 777 777 775 773 771 769 767 764 762 760 758 756 754 752 749
756 758 761 766 768 771 772 773 771 769 767 765 762 760 758 755 754 751 749 748 746 743
758 761 763 765 765 767 769 768 766 764 761 759 756 754 751 749 747 745 743 741 739 738
757 759 762 763 764 766 765 763 761 759 756 753 750 748 745 743 740 738 736 734 732 730
754 756 760 761 761 761 761 758 756 753 750 747 744 741 739 736 733 731 729 728 726 724
756 756 757 758 757 757 755 753 750 747 744 741 738 735 733 730 727 726 724 721 719 717
754 754 754 755 754 752 751 748 744 741 739 735 732 730 728 725 722 720 717 714 711 708
749 750 751 751 750 748 746 743 740 737 734 730 728 725 722 719 716 712 708 704 701 698
747 748 748 748 746 744 742 739 736 733 730 727 723 720 716 712 708 703 698 694 690 687
746 747 746 744 742 740 738 734 731 728 726 723 718 714 709 706 701 694 687 684 680 677
746 744 743 741 739 736 733 730 727 724 722 718 714 709 704 700 694 688 682 675 670 667